Location: Newark
(19.2128°S, 49.7858°W)
Time: 21:26:52
(UTC+00:00)

Envisat - Pass Details

Date: 28 August 2019
Orbit: 764 x 766 km, 98.1° (Epoch: 14 October)

Event Time Altitude Azimuth Distance (km) Brightness Sun altitude
Rises 23:19:04 0° 196° (SSW) 3,249 6.4 -31.0°
Reaches altitude 10° 23:22:26 10° 220° (SW) 2,315 5.9 -31.8°
Maximum altitude 23:25:05 14° 251° (WSW) 2,024 5.9 -32.5°
Drops below altitude 10° 23:27:42 10° 283° (WNW) 2,304 6.3 -33.1°
Sets 23:31:04 0° 307° (NW) 3,222 6.9 -33.9°
